SCP
0 0 0 0 0 0 0 0 0 0 0 0 0 0 0 0 0 0 0 0 0 0 0 0 0 0 0 0 0 0 0 0 0 0 0 0 0 0 0 0 0 0 0 0
0 0 0 0 0 0 0 0 0 0 0 0 0 0 0 0 0 0 0 0 0 0 0 0 0 0 0 0 0 0 0 0 0 0 0 0 0 0 0 0 0 0 0 0
0 0 0 0 0 0 0 0 0 0 0 0 0 0 0 0 0 0 0 0 0 0 0 0 0 0 0 0 0 0 0 0 0 0 0 0 0 -0 -0 0 0 0 0 0
0 0 0 0 0 0 0 0 0 0 0 0 0 0 0 0 0 0 0 0 0 0 0 0 0 0 0 0 0 0 0 0 0 0 0 0 0 0 -0 0 0 0 0 0
0 0 0 0 0 0 0 0 0 0 0 0 0 0 0 0 0 0 0 0 0 0 0 0 0 0 0 0 0 0 0 0 0 0 0 0 0 -0 -0 0 0 0 0 0
0 0 0 -0 0 0 0 0 0 0 0 0 0 0 0 0 0 0 0 0 0 0 0 0 0 0 0 0 0 0 0 0 0 0 0 0 0 0 -0 -0 -0 0 0 0
0 0 0 0 0 0 0 0 0 0 0 0 0 0 0 0 0 0 0 0 0 0 0 0 0 0 0 0 0 0 0 0 0 0 0 0 0 0 0 0 -0 0 0 0
0 0 0 0 0 0 0 0 0 0 0 0 0 0 0 0 0 0 0 0 0 0 0 0 0 0 0 0 0 0 0 0 0 0 0 0 0 0 0 0 0 -0 0 0
0 0 0 0 0 0 0 0 0 0 0 0 0 0 0 0 0 0 0 0 0 0 0 0 0 0 0 0 0 0 0 0 0 0 0 0 0 0 0 0 0 -0 -0 0
0 0 0 0 0 0 0 0 0 0 0 0 0 0 0 0 0 0 0 0 0 0 0 0 0 0 0 0 0 0 0 0 0 0 0 0 0 0 0 0 0 0 0 0
0 0 0 0 0 0 0 0 0 0 0 0 0 0 0 0 0 0 0 0 0 0 0 0 0 0 0 0 0 0 0 0 0 0 0 0 0 0 0 0 0 0 0 0
0 0 0 0 0 0 0 0 0 0 0 0 0 0 0 0 0 0 0 0 0 0 0 0 0 0 -0 0 0 0 0 0 0 0 0 0 0 0 0 0 0 0 0 0
0 0 0 0 0 0 0 0 0 0 0 0 0 0 0 0 0 0 0 0 0 0 0 0 0 0 0 0 0 -0 0 0 0 0 0 0 0 0 0 0 0 0 0 0
0 0 0 0 0 0 0 0 0 0 0 0 0 0 0 0 0 0 0 0 0 0 0 0 0 0 0 0 -0 0 0 0 0 0 0 0 0 0 0 0 0 0 0 0
0 0 0 0 0 0 0 0 0 0 0 0 0 0 0 0 0 0 0 0 -0 0 0 0 0 0 0 -0 -0 0 0 0 0 0 0 0 0 0 0 0 0 0 0 0
0 0 0 0 0 0 0 0 0 0 0 0 0 0 0 0 0 0 0 0 -0 0 0 0 0 0 0 0 0 0 0 0 0 0 0 0 0 0 0 0 0 0 0 0
0 0 0 0 0 -0 -0 0 0 0 0 0 0 0 0 0 -0 -0 -0 0 0 0 0 0 0 0 0 0 0 0 0 0 0 0 0 0 0 0 0 0 0 0 0 0
0 0 0 0 -0 -0 -0 0 0 0 0 0 -0 -0 0 0 0 0 0 0 0 0 0 0 0 0 0 0 0 0 0 0 0 0 0 0 0 0 0 0 0 0 0 0
0 0 0 0 0 0 0 0 0 0 -0 0 -0 0 0 0 0 0 0 0 0 0 0 0 0 0 0 0 0 0 0 0 0 0 0 0 0 0 0 0 0 0 0 0
0 0 0 0 0 0 0 0 0 0 0 -0 0 0 0 0 0 0 0 0 0 0 0 0 0 0 0 0 0 0 0 0 0 0 0 0 0 0 0 0 0 -0 0 0
0 0 0 0 0 0 0 0 0 0 0 0 0 0 0 0 0 0 0 0 0 0 0 0 0 0 0 0 0 0 0 0 0 0 0 0 0 0 0 -0 -0 -0 0 0
0 0 0 0 0 0 0 0 0 0 0 0 0 0 -0 0 0 0 0 0 0 0 0 0 0 0 0 0 0 0 0 0 0 0 0 0 0 0 0 -0 -0 0 0 0
0 0 0 0 0 0 0 0 0 0 0 0 0 0 0 0 0 0 0 0 0 0 0 0 0 0 0 0 0 0 0 0 0 0 0 0 0 0 0 -0 -0 0 0 0
0 0 0 0 0 0 0 0 0 0 0 0 0 0 0 0 0 0 0 0 0 0 0 0 0 0 0 0 0 0 0 0 0 0 0 0 0 0 -0 -0 -0 0 0 0
0 0 0 0 0 0 0 0 0 0 0 0 0 0 -0 0 0 0 0 0 0 0 0 -0 -0 0 0 0 0 0 0 0 0 0 0 0 0 0 -0 -0 0 0 0 0
0 0 0 0 0 0 0 0 0 0 0 0 0 0 0 0 -0 -0 -0 -0 0 -0 -0 0 0 0 0 0 0 0 0 0 0 0 0 0 0 0 -0 0 0 0 0 0
0 0 0 0 0 0 -0 0 0 0 0 0 0 0 0 -0 -0 -0 -0 -0 -0 -0 0 0 -0 0 0 0 0 0 0 0 0 0 0 0 0 -0 -0 0 0 0 0 0
Wind_Speed_500mb
9 6 8 4 7 5 10 8 11 13 17 12 26 25 51 51 51 55 54 47 39 20 11 5 5 2 5 5 5 10 17 20 27 31 31 35 39 41 37 30 23 28 29 30
6 7 6 5 6 10 13 3 10 4 10 9 16 21 41 50 51 52 57 46 28 22 10 4 1 1 4 2 4 13 15 20 23 27 31 39 49 46 33 25 23 26 26 30
3 4 3 6 11 12 5 3 4 9 16 11 8 18 39 51 51 53 48 38 29 15 8 5 5 8 7 3 12 12 13 15 20 23 28 39 50 52 35 29 28 23 26 30
6 5 2 12 5 6 17 4 12 7 8 9 13 16 21 40 51 52 46 37 29 21 12 11 11 8 6 12 16 16 11 13 20 21 25 33 45 55 47 28 27 26 33 41
9 7 8 10 6 10 9 3 3 4 2 9 29 18 15 29 46 48 45 35 24 17 13 14 10 8 11 11 12 11 14 18 17 19 23 29 37 49 54 42 34 36 38 36
7 10 14 14 7 13 9 6 8 9 16 22 15 5 7 28 40 42 37 28 24 22 16 12 7 10 8 9 9 9 16 18 19 19 20 26 32 37 46 52 48 40 26 23
5 6 11 11 12 14 9 13 19 15 26 34 10 15 19 40 37 35 36 31 23 12 14 12 9 11 12 8 10 11 12 14 15 21 23 23 29 30 36 46 53 38 28 25
6 4 12 21 11 16 12 19 17 16 17 41 29 19 42 48 47 40 30 29 25 21 16 10 11 12 11 12 12 9 11 15 18 21 23 22 26 26 28 37 47 50 35 36
15 11 7 16 6 14 29 24 14 11 15 26 34 45 50 51 36 28 28 26 24 19 15 11 11 16 15 16 13 8 9 15 18 20 20 23 25 26 26 30 39 44 46 40
5 3 3 25 32 30 21 16 14 8 13 26 35 44 47 40 34 33 25 25 23 17 8 7 8 12 14 16 17 9 11 16 20 19 22 25 25 25 28 24 31 37 36 41
2 5 12 23 28 29 22 19 18 18 19 25 30 42 40 41 40 35 28 24 20 10 4 2 9 13 5 13 18 10 13 18 17 20 22 25 28 25 28 20 26 33 36 38
8 5 3 15 26 23 21 22 17 23 25 26 28 37 42 39 33 33 30 26 21 12 7 7 11 9 2 5 12 11 14 17 22 21 21 23 24 26 28 25 24 28 29 32
4 4 8 20 25 24 18 16 22 26 26 35 35 36 35 32 30 28 23 20 16 12 5 9 10 7 6 6 12 16 18 19 19 22 21 26 27 27 26 25 24 26 27 29
3 8 5 12 15 20 21 26 26 31 33 35 34 33 31 26 26 28 22 23 21 10 6 6 4 5 8 8 14 18 20 12 20 21 25 21 28 30 28 26 25 26 32 34
3 12 14 17 13 13 14 24 39 43 41 38 37 34 36 35 30 27 27 26 15 8 5 1 1 5 4 6 15 18 14 19 21 22 22 23 22 28 31 27 21 29 38 37
26 19 26 23 11 16 17 28 52 49 43 39 38 37 37 31 28 30 27 19 10 5 1 3 4 5 4 10 15 17 20 21 23 22 24 26 24 28 29 22 25 36 40 42
30 25 32 32 15 39 45 31 39 46 49 40 32 36 43 30 30 31 27 16 6 0 2 5 4 3 3 11 14 20 21 19 25 21 27 29 31 31 22 22 33 38 39 46
13 19 32 36 34 53 48 37 40 47 56 41 35 42 39 33 33 36 27 21 13 5 5 8 4 3 8 13 10 21 26 26 27 27 27 30 33 24 23 31 37 39 43 46
20 21 21 54 51 43 44 45 46 52 50 43 40 37 31 28 36 32 23 18 8 6 7 3 3 8 11 10 15 25 25 24 23 23 27 31 29 29 32 34 34 39 40 44
17 19 23 37 59 56 43 49 49 52 49 37 28 30 31 35 34 24 20 13 13 8 4 1 4 10 4 9 22 26 23 19 17 20 25 29 33 33 30 30 33 35 39 43
12 15 9 7 27 38 36 55 63 53 47 43 36 33 34 37 30 26 27 18 15 7 4 3 2 3 7 18 24 27 21 16 16 20 25 34 33 33 30 32 35 39 40 45
28 7 9 16 18 26 35 53 58 52 57 42 35 38 38 35 32 30 19 13 15 9 7 2 6 3 11 18 26 24 18 16 17 21 27 32 33 33 33 34 38 39 43 45
24 12 11 13 16 27 41 57 52 50 53 42 41 40 35 32 31 30 29 20 12 13 8 6 2 6 12 20 22 17 16 17 19 22 27 31 33 34 34 32 35 41 44 45
15 11 16 21 25 35 43 51 56 58 47 37 35 28 28 34 30 26 19 19 17 10 11 8 4 5 13 22 19 16 16 18 21 23 25 26 28 29 29 31 34 40 43 46
5 10 18 20 36 39 31 63 62 52 44 41 32 27 21 21 22 27 21 21 14 14 13 8 5 9 18 20 15 15 16 20 24 24 25 27 28 26 25 30 37 40 43 47
9 13 24 29 31 37 49 58 60 52 50 42 39 29 24 24 25 27 27 22 21 16 15 11 8 12 12 11 12 14 17 21 23 25 27 28 27 22 23 29 36 40 42 46
17 20 33 38 46 46 55 46 25 44 47 41 40 32 28 28 29 31 28 27 20 12 9 11 14 16 14 12 13 15 19 22 24 26 27 27 24 21 22 27 33 40 41 44
Wind_Direction_500mb
51 52 67 87 102 172 220 189 161 243 193 229 203 190 190 181 184 182 183 181 186 192 179 224 331 26 31 57 17 25 28 21 14 1 8 3 354 343 331 327 331 337 343 356
95 72 47 234 179 234 240 234 258 220 277 206 215 164 178 187 184 178 185 189 184 175 181 235 244 146 121 111 348 20 21 20 19 18 14 8 4 359 356 351 339 335 333 340
105 22 217 340 214 225 224 197 245 187 235 160 176 162 180 189 185 187 187 184 180 180 182 157 167 150 125 29 2 11 28 24 5 2 9 12 10 9 1 351 350 340 334 336
156 58 170 240 292 202 125 39 343 12 320 188 139 140 195 210 190 186 191 187 195 193 182 147 145 137 50 17 28 37 26 12 0 359 11 11 11 13 12 3 1 345 336 332
141 183 297 309 212 157 177 199 232 198 142 99 130 111 78 180 194 195 188 184 172 163 166 151 138 77 31 43 35 28 17 6 354 6 13 11 10 14 19 15 357 340 336 343
144 165 207 229 225 138 102 299 223 202 182 168 157 153 213 178 188 178 166 164 154 141 157 149 105 43 16 10 7 2 8 359 7 10 12 9 6 8 13 14 9 0 2 7
150 207 287 244 195 146 123 239 182 196 213 187 193 218 172 173 169 165 155 155 159 161 175 141 78 25 2 359 355 8 349 345 351 10 13 10 1 360 5 10 14 17 16 9
95 121 280 196 119 161 196 150 174 201 210 202 212 165 160 164 164 163 159 155 160 165 155 107 60 25 1 3 358 350 329 338 345 1 10 9 0 354 356 3 14 24 24 28
175 211 248 177 189 164 153 157 178 205 217 212 177 164 164 161 159 155 147 151 153 159 143 104 48 20 11 4 347 340 336 349 350 3 359 356 354 351 348 354 8 17 23 22
117 2 166 146 149 151 149 154 162 185 207 188 178 169 164 161 160 151 145 151 157 158 135 74 30 13 24 22 8 338 3 346 359 3 359 355 350 356 352 347 3 12 12 14
321 21 109 158 165 165 158 163 173 177 187 185 178 168 171 167 164 157 153 168 171 165 123 8 356 354 14 22 20 40 2 356 357 356 1 8 2 358 359 358 0 8 11 10
215 185 202 201 174 169 163 168 183 182 168 175 178 168 171 170 169 165 166 167 168 167 195 280 320 309 306 3 19 15 345 349 356 349 355 355 353 4 13 12 360 5 6 3
99 143 163 180 191 183 178 182 199 195 175 168 172 173 173 170 172 171 176 175 176 184 226 282 293 260 281 331 352 338 346 351 352 353 349 3 354 345 343 354 354 358 353 350
71 206 206 164 180 197 216 211 205 204 188 181 175 179 170 168 171 183 180 179 187 201 234 267 276 318 335 341 342 345 350 360 345 347 353 348 355 353 355 346 345 351 354 349
295 199 186 179 199 232 210 221 215 205 194 187 190 188 179 179 179 183 182 182 186 202 211 172 71 345 333 336 346 8 356 341 346 344 343 346 335 347 356 350 344 347 347 346
218 198 187 182 241 260 243 203 207 202 194 190 198 202 191 187 178 179 186 189 197 209 188 356 356 5 63 334 356 353 335 327 341 336 339 343 343 345 354 353 347 348 349 350
180 179 191 184 215 252 238 223 218 211 202 200 205 194 187 183 179 186 183 182 199 230 328 291 264 292 4 0 354 339 345 333 335 335 338 346 347 351 355 351 350 352 353 352
244 222 226 208 172 214 217 208 208 202 192 202 197 187 190 186 192 184 190 187 192 240 236 186 240 315 334 340 330 335 342 337 332 337 346 351 354 1 358 351 350 353 354 358
233 248 258 223 219 218 210 204 201 200 197 183 183 192 193 187 191 188 188 185 191 180 165 177 323 331 320 349 336 345 340 330 327 335 352 1 4 358 352 351 355 360 2 2
206 233 262 229 223 220 209 201 197 188 175 176 183 175 182 189 192 193 187 179 149 145 27 119 327 328 338 350 350 351 342 333 339 349 358 1 356 351 357 6 1 359 2 4
166 201 227 160 208 207 206 198 189 180 174 185 189 185 186 188 189 189 181 183 187 189 194 231 311 333 344 358 2 354 346 344 352 0 4 5 18 19 13 6 2 5 9 4
19 170 212 210 198 210 207 192 190 192 190 184 187 183 180 181 183 187 196 205 190 182 167 199 230 302 345 354 346 346 349 347 356 358 2 7 10 9 4 1 5 14 8 5
10 1 210 216 229 206 191 188 188 191 181 181 182 182 181 179 177 178 176 173 174 161 184 219 215 354 348 347 354 356 354 356 1 0 356 355 356 357 1 6 12 12 6 6
360 337 218 206 196 196 184 184 190 175 171 174 173 169 167 169 173 178 172 171 167 169 156 135 31 7 352 355 356 358 5 9 9 5 358 355 355 357 5 12 14 11 9 9
9 112 180 201 189 179 144 160 157 154 172 164 155 146 145 165 171 163 167 161 160 152 148 122 87 346 336 341 358 4 12 13 11 9 9 5 4 9 18 20 16 15 14 14
199 179 169 200 202 200 167 137 150 184 173 158 151 150 149 157 164 156 151 150 142 134 117 92 26 11 10 15 12 12 16 17 15 15 13 11 13 22 26 23 20 22 20 21
211 197 177 190 181 155 169 180 181 174 171 166 159 160 165 164 156 153 153 147 136 125 95 67 44 30 33 28 26 26 25 23 20 17 14 15 21 28 27 25 23 27 26 26
Wind_Speed_850mb
9 6 8 4 7 5 10 8 11 13 17 12 26 25 51 51 51 55 54 47 39 20 11 5 5 2 5 5 5 10 17 20 27 31 31 35 39 41 37 30 23 28 29 30
6 7 6 5 6 10 13 3 10 4 10 9 16 21 41 50 51 52 57 46 28 22 10 4 1 1 4 2 4 13 15 20 23 27 31 39 49 46 33 25 23 26 26 30
3 4 3 6 11 12 5 3 4 9 16 11 8 18 39 51 51 53 48 38 29 15 8 5 5 8 7 3 12 12 13 15 20 23 28 39 50 52 35 29 28 23 26 30
6 5 2 12 5 6 17 4 12 7 8 9 13 16 21 40 51 52 46 37 29 21 12 11 11 8 6 12 16 16 11 13 20 21 25 33 45 55 47 28 27 26 33 41
9 7 8 10 6 10 9 3 3 4 2 9 29 18 15 29 46 48 45 35 24 17 13 14 10 8 11 11 12 11 14 18 17 19 23 29 37 49 54 42 34 36 38 36
7 10 14 14 7 13 9 6 8 9 16 22 15 5 7 28 40 42 37 28 24 22 16 12 7 10 8 9 9 9 16 18 19 19 20 26 32 37 46 52 48 40 26 23
5 6 11 11 12 14 9 13 19 15 26 34 10 15 19 40 37 35 36 31 23 12 14 12 9 11 12 8 10 11 12 14 15 21 23 23 29 30 36 46 53 38 28 25
6 4 12 21 11 16 12 19 17 16 17 41 29 19 42 48 47 40 30 29 25 21 16 10 11 12 11 12 12 9 11 15 18 21 23 22 26 26 28 37 47 50 35 36
15 11 7 16 6 14 29 24 14 11 15 26 34 45 50 51 36 28 28 26 24 19 15 11 11 16 15 16 13 8 9 15 18 20 20 23 25 26 26 30 39 44 46 40
5 3 3 25 32 30 21 16 14 8 13 26 35 44 47 40 34 33 25 25 23 17 8 7 8 12 14 16 17 9 11 16 20 19 22 25 25 25 28 24 31 37 36 41
2 5 12 23 28 29 22 19 18 18 19 25 30 42 40 41 40 35 28 24 20 10 4 2 9 13 5 13 18 10 13 18 17 20 22 25 28 25 28 20 26 33 36 38
8 5 3 15 26 23 21 22 17 23 25 26 28 37 42 39 33 33 30 26 21 12 7 7 11 9 2 5 12 11 14 17 22 21 21 23 24 26 28 25 24 28 29 32
4 4 8 20 25 24 18 16 22 26 26 35 35 36 35 32 30 28 23 20 16 12 5 9 10 7 6 6 12 16 18 19 19 22 21 26 27 27 26 25 24 26 27 29
3 8 5 12 15 20 21 26 26 31 33 35 34 33 31 26 26 28 22 23 21 10 6 6 4 5 8 8 14 18 20 12 20 21 25 21 28 30 28 26 25 26 32 34
3 12 14 17 13 13 14 24 39 43 41 38 37 34 36 35 30 27 27 26 15 8 5 1 1 5 4 6 15 18 14 19 21 22 22 23 22 28 31 27 21 29 38 37
26 19 26 23 11 16 17 28 52 49 43 39 38 37 37 31 28 30 27 19 10 5 1 3 4 5 4 10 15 17 20 21 23 22 24 26 24 28 29 22 25 36 40 42
30 25 32 32 15 39 45 31 39 46 49 40 32 36 43 30 30 31 27 16 6 0 2 5 4 3 3 11 14 20 21 19 25 21 27 29 31 31 22 22 33 38 39 46
13 19 32 36 34 53 48 37 40 47 56 41 35 42 39 33 33 36 27 21 13 5 5 8 4 3 8 13 10 21 26 26 27 27 27 30 33 24 23 31 37 39 43 46
20 21 21 54 51 43 44 45 46 52 50 43 40 37 31 28 36 32 23 18 8 6 7 3 3 8 11 10 15 25 25 24 23 23 27 31 29 29 32 34 34 39 40 44
17 19 23 37 59 56 43 49 49 52 49 37 28 30 31 35 34 24 20 13 13 8 4 1 4 10 4 9 22 26 23 19 17 20 25 29 33 33 30 30 33 35 39 43
12 15 9 7 27 38 36 55 63 53 47 43 36 33 34 37 30 26 27 18 15 7 4 3 2 3 7 18 24 27 21 16 16 20 25 34 33 33 30 32 35 39 40 45
28 7 9 16 18 26 35 53 58 52 57 42 35 38 38 35 32 30 19 13 15 9 7 2 6 3 11 18 26 24 18 16 17 21 27 32 33 33 33 34 38 39 43 45
24 12 11 13 16 27 41 57 52 50 53 42 41 40 35 32 31 30 29 20 12 13 8 6 2 6 12 20 22 17 16 17 19 22 27 31 33 34 34 32 35 41 44 45
15 11 16 21 25 35 43 51 56 58 47 37 35 28 28 34 30 26 19 19 17 10 11 8 4 5 13 22 19 16 16 18 21 23 25 26 28 29 29 31 34 40 43 46
5 10 18 20 36 39 31 63 62 52 44 41 32 27 21 21 22 27 21 21 14 14 13 8 5 9 18 20 15 15 16 20 24 24 25 27 28 26 25 30 37 40 43 47
9 13 24 29 31 37 49 58 60 52 50 42 39 29 24 24 25 27 27 22 21 16 15 11 8 12 12 11 12 14 17 21 23 25 27 28 27 22 23 29 36 40 42 46
17 20 33 38 46 46 55 46 25 44 47 41 40 32 28 28 29 31 28 27 20 12 9 11 14 16 14 12 13 15 19 22 24 26 27 27 24 21 22 27 33 40 41 44
Wind_Direction_850mb
51 52 67 87 102 172 220 189 161 243 193 229 203 190 190 181 184 182 183 181 186 192 179 224 331 26 31 57 17 25 28 21 14 1 8 3 354 343 331 327 331 337 343 356
95 72 47 234 179 234 240 234 258 220 277 206 215 164 178 187 184 178 185 189 184 175 181 235 244 146 121 111 348 20 21 20 19 18 14 8 4 359 356 351 339 335 333 340
105 22 217 340 214 225 224 197 245 187 235 160 176 162 180 189 185 187 187 184 180 180 182 157 167 150 125 29 2 11 28 24 5 2 9 12 10 9 1 351 350 340 334 336
156 58 170 240 292 202 125 39 343 12 320 188 139 140 195 210 190 186 191 187 195 193 182 147 145 137 50 17 28 37 26 12 0 359 11 11 11 13 12 3 1 345 336 332
141 183 297 309 212 157 177 199 232 198 142 99 130 111 78 180 194 195 188 184 172 163 166 151 138 77 31 43 35 28 17 6 354 6 13 11 10 14 19 15 357 340 336 343
144 165 207 229 225 138 102 299 223 202 182 168 157 153 213 178 188 178 166 164 154 141 157 149 105 43 16 10 7 2 8 359 7 10 12 9 6 8 13 14 9 0 2 7
150 207 287 244 195 146 123 239 182 196 213 187 193 218 172 173 169 165 155 155 159 161 175 141 78 25 2 359 355 8 349 345 351 10 13 10 1 360 5 10 14 17 16 9
95 121 280 196 119 161 196 150 174 201 210 202 212 165 160 164 164 163 159 155 160 165 155 107 60 25 1 3 358 350 329 338 345 1 10 9 0 354 356 3 14 24 24 28
175 211 248 177 189 164 153 157 178 205 217 212 177 164 164 161 159 155 147 151 153 159 143 104 48 20 11 4 347 340 336 349 350 3 359 356 354 351 348 354 8 17 23 22
117 2 166 146 149 151 149 154 162 185 207 188 178 169 164 161 160 151 145 151 157 158 135 74 30 13 24 22 8 338 3 346 359 3 359 355 350 356 352 347 3 12 12 14
321 21 109 158 165 165 158 163 173 177 187 185 178 168 171 167 164 157 153 168 171 165 123 8 356 354 14 22 20 40 2 356 357 356 1 8 2 358 359 358 0 8 11 10
215 185 202 201 174 169 163 168 183 182 168 175 178 168 171 170 169 165 166 167 168 167 195 280 320 309 306 3 19 15 345 349 356 349 355 355 353 4 13 12 360 5 6 3
99 143 163 180 191 183 178 182 199 195 175 168 172 173 173 170 172 171 176 175 176 184 226 282 293 260 281 331 352 338 346 351 352 353 349 3 354 345 343 354 354 358 353 350
71 206 206 164 180 197 216 211 205 204 188 181 175 179 170 168 171 183 180 179 187 201 234 267 276 318 335 341 342 345 350 360 345 347 353 348 355 353 355 346 345 351 354 349
295 199 186 179 199 232 210 221 215 205 194 187 190 188 179 179 179 183 182 182 186 202 211 172 71 345 333 336 346 8 356 341 346 344 343 346 335 347 356 350 344 347 347 346
218 198 187 182 241 260 243 203 207 202 194 190 198 202 191 187 178 179 186 189 197 209 188 356 356 5 63 334 356 353 335 327 341 336 339 343 343 345 354 353 347 348 349 350
180 179 191 184 215 252 238 223 218 211 202 200 205 194 187 183 179 186 183 182 199 230 328 291 264 292 4 0 354 339 345 333 335 335 338 346 347 351 355 351 350 352 353 352
244 222 226 208 172 214 217 208 208 202 192 202 197 187 190 186 192 184 190 187 192 240 236 186 240 315 334 340 330 335 342 337 332 337 346 351 354 1 358 351 350 353 354 358
233 248 258 223 219 218 210 204 201 200 197 183 183 192 193 187 191 188 188 185 191 180 165 177 323 331 320 349 336 345 340 330 327 335 352 1 4 358 352 351 355 360 2 2
206 233 262 229 223 220 209 201 197 188 175 176 183 175 182 189 192 193 187 179 149 145 27 119 327 328 338 350 350 351 342 333 339 349 358 1 356 351 357 6 1 359 2 4
166 201 227 160 208 207 206 198 189 180 174 185 189 185 186 188 189 189 181 183 187 189 194 231 311 333 344 358 2 354 346 344 352 0 4 5 18 19 13 6 2 5 9 4
19 170 212 210 198 210 207 192 190 192 190 184 187 183 180 181 183 187 196 205 190 182 167 199 230 302 345 354 346 346 349 347 356 358 2 7 10 9 4 1 5 14 8 5
10 1 210 216 229 206 191 188 188 191 181 181 182 182 181 179 177 178 176 173 174 161 184 219 215 354 348 347 354 356 354 356 1 0 356 355 356 357 1 6 12 12 6 6
360 337 218 206 196 196 184 184 190 175 171 174 173 169 167 169 173 178 172 171 167 169 156 135 31 7 352 355 356 358 5 9 9 5 358 355 355 357 5 12 14 11 9 9
9 112 180 201 189 179 144 160 157 154 172 164 155 146 145 165 171 163 167 161 160 152 148 122 87 346 336 341 358 4 12 13 11 9 9 5 4 9 18 20 16 15 14 14
199 179 169 200 202 200 167 137 150 184 173 158 151 150 149 157 164 156 151 150 142 134 117 92 26 11 10 15 12 12 16 17 15 15 13 11 13 22 26 23 20 22 20 21
211 197 177 190 181 155 169 180 181 174 171 166 159 160 165 164 156 153 153 147 136 125 95 67 44 30 33 28 26 26 25 23 20 17 14 15 21 28 27 25 23 27 26 26